www.pogodaiklimat.ru

Погода и климат >> Архив погоды >> Китай >> Хэбэй >> Синтай


ПОГОДА в Синтае

  • Прогноз погоды в Синтае
  • Монитор погоды в Синтае

АРХИВ ПОГОДЫ в Синтае

Время (UTC), дата Ветер
(напр.,м/с)
 
Видим.   Явления Облачность Т
(С)
Тd
(С)
f
(%)
Тe
(С)
Тes
(С)
Комфортность P
(гПа)
Po
(гПа)
Тmin
(С)
Tmax
(С)
R
(мм)
R24
(мм)
S
(см)
03 11.09 С 5 12 км слаб. дождь 10/10
[]
+17.5 +16.4 93 +17 +17 1022.6 1013.3
06 11.09 СЗ 6 17 км слаб. дождь 10/10
[]
+17.5 +15.7 89 +17 +17 1020.7 999.0 +17.5 3
09 11.09 СЗ 3 17 км слаб. дождь 10/10
[]
+16.9 +15.9 94 +17 +17 1019.7 1010.4
12 11.09 З 4 30 км слаб. дождь 10/10 600 м
[]
+16.0 +14.9 93 +15 +15 1019.9 998.1 5
15 11.09 З 3 21 км н/о +16.0 +15.7 98 +15 +15 1019.2 1009.8
18 11.09 СЗ 1 5000 м дымка ?/? +16.1 +15.9 99 +17 +17 1018.2 996.4 +20.2 6
21 11.09 С 3 4800 м дымка н/о +16.2 +16.0 99 +16 +16 1017.5 1008.2
00 12.09 С 2 7000 м 10/10
[]
+16.4 +15.8 96 +16 +16 1018.1 996.2 0.1
03 12.09 С 2 7000 м 10/10
[]
+17.8 +16.5 92 +18 +18 1017.7 1008.4
06 12.09 С 3 9000 м 10/10
[]
+19.3 +16.0 81 +21 +21 комфорт 1015.3 993.6 +15.8
09 12.09 Ю 1 9000 м 10/10
[]
+19.5 +16.3 82 +23 +23 комфорт 1013.6 1004.4
12 12.09 ЮВ 1 11 км 10/10
[]
+18.8 +17.1 90 +21 +21 комфорт 1013.6 991.9
15 12.09 Ю 2 6000 м дымка н/о +18.5 +17.7 95 +20 +20 1012.3 1003.1
18 12.09 Ю 2 3700 м дымка ?/? +18.2 +17.7 97 +19 +19 1010.6 989.1 +19.8
21 12.09 В 1 1400 м дымка н/о +17.9 +17.7 99 +19 +19 1010.4 1001.2
00 13.09 С 1 4600 м дымка 10/10
[]
+18.8 +18.6 99 +21 +21 комфорт 1012.2 990.7 3
03 13.09 С 2 27 км 9/9
[]
+23.0 +18.5 76 +29 +30 очень
душно
1013.3 1004.2
06 13.09 З 2 30 км 9/9
[]
+23.6 +18.3 72 +28 +29 душно 1013.0 991.6 +17.9
09 13.09 Ю 1 28 км 9/9
[]
+23.8 +19.5 77 +29 +29 душно 1013.9 1004.8
12 13.09 С 1 30 км 9/9
[]
+22.5 +17.8 75 +28 +28 душно 1015.5 994.0
15 13.09 З 3 30 км н/о +21.2 +15.7 71 +24 +24 комфорт 1015.5 1006.3
18 13.09 З 4 30 км н/о +21.8 +13.4 59 +25 +25 комфорт 1015.4 994.1 +24.4
21 13.09 З 3 30 км н/о +21.5 +13.7 61 +24 +24 комфорт 1016.0 1006.8
00 14.09 З 3 30 км 10/10
[]
+21.3 +14.5 65 +24 +24 комфорт 1017.1 995.7
03 14.09 В 1 30 км 9/9
[]
+26.8 +12.5 41 +28 +30 жарко 1017.1 1008.1
06 14.09 С 1 30 км 9/9
[]
+27.4 +13.7 43 +29 +31 жарко 1016.2 995.0 +20.7
09 14.09 Ю 2 30 км 9/9
[]
+24.9 +16.1 58 +28 +28 жарко 1015.3 1006.3
12 14.09 З 2 25 км 10/10
[]
+22.6 +17.3 72 +27 +27 душно 1015.9 994.5
15 14.09 З 3 30 км 10/10
[]
+22.7 +12.3 52 +25 +25 комфорт 1016.6 1007.5
18 14.09 Ю 2 30 км 10/10
[]
+20.2 +13.7 66 +23 +23 комфорт 1015.8 994.5 +27.6
21 14.09 Ю 2 30 км 10/10
[]
+20.7 +13.7 64 +24 +24 комфорт 1015.1 1005.9
00 15.09 ЮВ 1 30 км 9/9
[]
+20.7 +14.6 68 +25 +25 комфорт 1015.5 994.1
03 15.09 Ю 5 19 км 9/9
[]
+23.0 +14.8 60 +27 +28 душно 1014.8 1005.7
06 15.09 Ю 5 30 км 9/9
[]
+23.5 +15.0 59 +26 +27 жарко 1013.1 991.8 +19.2
09 15.09 Ю 3 30 км 9/9
[]
+22.3 +17.0 72 +27 +27 душно 1013.6 1004.5
12 15.09 Ю 3 24 км 9/9
[]
+19.5 +16.9 85 +22 +22 комфорт 1014.1 992.6
15 15.09 С 1 8000 м 9/9
[]
+17.5 +16.2 92 +19 +19 1014.3 1005.0
18 15.09 З 3 10 км 9/9
[]
+17.2 +16.4 95 +17 +17 1014.4 992.9 +25.1
21 15.09 З 4 30 км 9/9
[]
+16.8 +13.7 82 +16 +16 1015.0 1005.7
00 16.09 З 2 22 км 3/3
[]
+18.4 +15.3 82 +19 +21 1017.1 995.5
03 16.09 С 8 30 км 4/4
[]
+25.5 +12.0 43 +27 +28 жарко 1017.2 1008.2
06 16.09 В 3 25 км 9/9
[]
+26.9 +15.0 48 +30 +31 душно 1015.8 994.4 +16.1
09 16.09 В 4 10 км 9/9
[]
+24.9 +18.1 66 +29 +29 душно 1015.5 1006.5
12 16.09 СВ 1 н/о дымка 9/9
[]
+21.6 +19.0 85 +26 +26 душно 1016.8 995.3
15 16.09 СЗ 2 3600 м дымка н/о +20.6 +19.3 92 +25 +25 комфорт 1017.3 1008.1
18 16.09 З 3 2500 м дымка ?/? +19.7 +19.0 96 +23 +23 комфорт 1017.3 996.0 +27.0
21 16.09 штиль 0 2400 м дымка н/о +19.4 +18.7 96 +22 +22 комфорт 1017.6 1008.4
00 17.09 З 3 1700 м дымка 10/10
[]
+19.5 +19.3 99 +22 +22 комфорт 1019.3 997.7
03 17.09 ЮВ 2 4800 м дымка 10/10
[]
+23.1 +19.5 80 +30 +30 очень
душно
1019.3 1010.2
06 17.09 Ю 3 н/о дымка 10/10
[]
+24.3 +19.4 74 +29 +29 душно 1017.3 995.9 +19.0
09 17.09 Ю 3 4700 м дымка 9/9
[]
+24.9 +19.5 72 +30 +30 душно 1016.9 1007.8
12 17.09 С 5 н/о дымка 9/9
[]
+22.1 +18.5 80 +27 +27 душно 1019.0 997.5
15 17.09 З 3 8000 м н/о +21.2 +17.2 78 +25 +25 комфорт 1019.3 1010.1
18 17.09 З 3 14 км н/о +19.4 +15.3 77 +21 +21 комфорт 1020.5 999.0 +25.7
21 17.09 С 5 22 км н/о +20.7 +13.4 63 +23 +23 комфорт 1023.0 1013.8
00 18.09 С 7 30 км 9/9
[]
+21.7 +9.6 46 +23 +23 комфорт 1026.6 1005.0

 

Местоположение метеостанции Синтай (Хэбэй, Китай): широта 37.07 долгота 114.50 высота над уровнем моря 78 м.

В архиве по умолчанию представлена погода в Синтае за последнюю неделю. Архивные данные за месяц целиком и за предыдущие месяцы, начиная с января 2011 года, Вы можете получить, выбрав интересующий диапазон дат из раскрывающегося списка и нажав кнопку "Ввод!".


*Определитесь, кто Вы:
робот инопланетянин человек

Внимание! Время в таблицах - всемирное. Для получения местного времени необходимо прибавить поправку, которая равна 8 ч.

Смотрите также архив погоды в соседних городах и на ближайших метеорологических станциях:

Погода в Шицзячжуане (Хэбэй, Китай) (107 км)
Погода в Аньяне (Хэнань, Китай) (114 км)
Погода в Юйшэ (Шаньси, Китай) (135 км)
Погода в Синьсяне (Хэнань, Китай) (139 км)
Погода в Линчэне (Шаньдун, Китай) (185 км)
Погода в Тайюанье (Шаньси, Китай) (189 км)
Погода в Баотоу (Внутренняя Монголия, Китай) (213 км)
Погода в Баодине (Хэбэй, Китай) (219 км)
Погода на Утайшане (Шаньси, Китай) (226 км)
Погода в Цзесю (Шаньси, Китай) (230 км)

Пояснения к столбцам:

Ветер - указаны скорость ветра в м/с - средняя за 10 мин, порывы в срок и между сроками (в фигурных скобках) и направление, откуда дует ветер: С - северный, СВ - северо-восточный, В - восточный, ЮВ - юго-восточный, Ю - южный, ЮЗ - юго-западный, З - западный, СЗ - северо-западный.
Видимость - горизонтальная дальность видимости в метрах или километрах. При видимости от 1 до 10 км при отсутствии осадков обычно наблюдается дымка, при ухудшении видимости до 1 км и менее - туман. В сухую погоду видимость может ухудшаться дымом, пылью или мглою.
Явления - указаны атмосферные явления, наблюдавшиеся в срок или в последний час перед сроком; фигурными скобками обозначены явления, наблюдавшиеся между сроками (за 1-3 часа до срока); квадратными скобками обозначены град или гололедные отложения с указанием их диаметра в мм.
Облачность - указаны через наклонную черту общая и нижняя облачность в баллах и высота нижней границы облаков в метрах; квадратными скобками обозначены формы облаков: Ci - перистые, Cs - перисто-слоистые, Cc - перисто-кучевые, Ac - высококучевые, As - высокослоистые, Sc - слоисто-кучевые, Ns - слоисто-дождевые, Cu - кучевые, Cb - кучево-дождевые. Подробнее классификацию облаков см. в Атласе облаков (PDF).
T - Температура воздуха - температура, измеренная на высоте 2 м над землей.
Td - Температура точки росы - температура, при понижении до которой содержащийся в воздухе водяной пар достигнет насыщения.
f - Относительная влажность воздуха - влажноcть воздуха, измеренная на высоте 2 м над землей.
Te - Эффективная температура - температура, которую ощущает одетый по сезону человек в тени. Характеристика душности погоды. При расчете учитывается влияние влажности воздуха и скорости ветра на теплоощущения человека.
Tes - Эффективная температура на солнце - температура, которую ощущает человек, с поправкой на солнечный нагрев. Характеристика знойности погоды. Зависит от высоты солнца над горизонтом, облачности и скорости ветра. Ночью, в пасмурную погоду, а также при ветре 12 м/с и более поправка равна нулю.
P - Атмосферное давление - приведенное к уровню моря атмосферное давление.
Po - Атмосферное давление - измеренное на уровне метеостанции атмосферное давление.
Tmin - Минимальная температура - минимум температуры воздуха на высоте 2 м над землей.
Tmax - Максимальная температура - максимум температуры воздуха на высоте 2 м над землей.
R - Количество осадков - Количество выпавших осадков за период времени, мм. При наведении курсора мыши на число - период времени, за который выпало указанное количество осадков.
R24 - Количество осадков - Количество выпавших осадков за 24 часа, мм.
S - Снежный покров - Высота снежного покрова, см. При наведении курсора мыши на число - состояние снежного покрова и степень покрытия местности в баллах.